Time,TemperatureF,DewpointF,PressureIn,WindDirection,WindDirectionDegrees,WindSpeedMPH,WindSpeedGustMPH,Humidity,HourlyPrecipIn,Conditions,Clouds,dailyrainin,SoftwareType,DateUTC
2013-02-15 00:01:00,57.0,19.0,-100.00,NE,50,24.0,39.0,22,-99.99,,,-99.99,,2013-02-15 08:01:00,
2013-02-15 00:11:00,57.0,17.0,-100.00,NE,45,26.0,43.0,21,-99.99,,,-99.99,,2013-02-15 08:11:00,
2013-02-15 00:21:00,57.0,16.0,-100.00,NE,51,26.0,38.0,20,-99.99,,,-99.99,,2013-02-15 08:21:00,
2013-02-15 00:31:00,57.0,17.0,-100.00,NE,50,31.0,47.0,21,-99.99,,,-99.99,,2013-02-15 08:31:00,
2013-02-15 00:41:00,57.0,17.0,-100.00,NE,46,29.0,45.0,21,-99.99,,,-99.99,,2013-02-15 08:41:00,
2013-02-15 00:52:00,57.0,17.0,-100.00,NE,48,30.0,44.0,21,-99.99,,,-99.99,,2013-02-15 08:52:00,
2013-02-15 01:01:00,57.0,17.0,-100.00,NE,48,30.0,44.0,21,-99.99,,,-99.99,,2013-02-15 09:01:00,
2013-02-15 01:12:00,57.0,15.0,-100.00,NE,46,31.0,45.0,19,-99.99,,,-99.99,,2013-02-15 09:12:00,
2013-02-15 01:21:00,57.0,15.0,-100.00,NE,48,33.0,49.0,19,-99.99,,,-99.99,,2013-02-15 09:21:00,
2013-02-15 01:31:00,57.0,15.0,-100.00,NE,47,32.0,54.0,19,-99.99,,,-99.99,,2013-02-15 09:31:00,
2013-02-15 01:41:00,57.0,16.0,-100.00,NE,44,27.0,51.0,20,-99.99,,,-99.99,,2013-02-15 09:41:00,
2013-02-15 01:51:00,56.0,16.0,-100.00,NE,50,32.0,51.0,20,-99.99,,,-99.99,,2013-02-15 09:51:00,
2013-02-15 02:01:00,56.0,17.0,-100.00,NE,46,29.0,44.0,21,-99.99,,,-99.99,,2013-02-15 10:01:00,
2013-02-15 02:11:00,56.0,16.0,-100.00,NE,46,30.0,52.0,20,-99.99,,,-99.99,,2013-02-15 10:11:00,
2013-02-15 02:21:00,56.0,16.0,-100.00,NE,43,34.0,51.0,20,-99.99,,,-99.99,,2013-02-15 10:21:00,
2013-02-15 02:31:00,56.0,16.0,-100.00,NE,43,32.0,53.0,20,-99.99,,,-99.99,,2013-02-15 10:31:00,
2013-02-15 02:41:00,56.0,16.0,-100.00,NE,48,29.0,56.0,20,-99.99,,,-99.99,,2013-02-15 10:41:00,
2013-02-15 02:51:00,56.0,16.0,-100.00,NE,47,36.0,53.0,20,-99.99,,,-99.99,,2013-02-15 10:51:00,
2013-02-15 03:01:00,56.0,16.0,-100.00,NE,51,31.0,51.0,20,-99.99,,,-99.99,,2013-02-15 11:01:00,
2013-02-15 03:11:00,56.0,14.0,-100.00,NE,54,31.0,50.0,19,-99.99,,,-99.99,,2013-02-15 11:11:00,
2013-02-15 03:22:00,56.0,14.0,-100.00,NE,54,33.0,48.0,19,-99.99,,,-99.99,,2013-02-15 11:22:00,
2013-02-15 03:31:00,56.0,13.0,-100.00,NE,55,31.0,53.0,18,-99.99,,,-99.99,,2013-02-15 11:31:00,
2013-02-15 03:42:00,56.0,13.0,-100.00,NE,55,28.0,40.0,18,-99.99,,,-99.99,,2013-02-15 11:42:00,
2013-02-15 03:52:00,56.0,13.0,-100.00,NE,54,28.0,39.0,18,-99.99,,,-99.99,,2013-02-15 11:52:00,
2013-02-15 04:01:00,56.0,16.0,-100.00,NE,53,25.0,38.0,20,-99.99,,,-99.99,,2013-02-15 12:01:00,
2013-02-15 04:11:00,56.0,16.0,-100.00,NE,52,22.0,36.0,20,-99.99,,,-99.99,,2013-02-15 12:11:00,
2013-02-15 04:21:00,55.0,16.0,-100.00,NE,55,16.0,29.0,21,-99.99,,,-99.99,,2013-02-15 12:21:00,
2013-02-15 04:31:00,55.0,16.0,-100.00,NE,56,13.0,21.0,21,-99.99,,,-99.99,,2013-02-15 12:31:00,
2013-02-15 04:42:00,55.0,16.0,-100.00,NE,49,11.0,28.0,21,-99.99,,,-99.99,,2013-02-15 12:42:00,
2013-02-15 04:52:00,55.0,16.0,-100.00,ENE,72,8.0,24.0,21,-99.99,,,-99.99,,2013-02-15 12:52:00,
2013-02-15 05:02:00,55.0,15.0,-100.00,ENE,72,5.0,15.0,20,-99.99,,,-99.99,,2013-02-15 13:02:00,
2013-02-15 05:11:00,55.0,15.0,-100.00,SE,140,6.0,14.0,20,-99.99,,,-99.99,,2013-02-15 13:11:00,
2013-02-15 05:21:00,55.0,16.0,-100.00,SSE,153,6.0,14.0,21,-99.99,,,-99.99,,2013-02-15 13:21:00,
2013-02-15 05:31:00,55.0,16.0,-100.00,South,186,6.0,11.0,21,-99.99,,,-99.99,,2013-02-15 13:31:00,
2013-02-15 05:41:00,55.0,16.0,-100.00,South,170,7.0,18.0,21,-99.99,,,-99.99,,2013-02-15 13:41:00,
2013-02-15 05:51:00,54.0,15.0,-100.00,South,191,8.0,13.0,21,-99.99,,,-99.99,,2013-02-15 13:51:00,
2013-02-15 06:01:00,55.0,16.0,-100.00,South,186,9.0,17.0,21,-99.99,,,-99.99,,2013-02-15 14:01:00,
2013-02-15 06:11:00,54.0,16.0,-100.00,South,188,10.0,15.0,22,-99.99,,,-99.99,,2013-02-15 14:11:00,
2013-02-15 06:21:00,55.0,16.0,-100.00,SSW,207,7.0,18.0,21,-99.99,,,-99.99,,2013-02-15 14:21:00,
2013-02-15 06:32:00,55.0,16.0,-100.00,WSW,247,7.0,23.0,21,-99.99,,,-99.99,,2013-02-15 14:32:00,
2013-02-15 06:41:00,54.0,16.0,-100.00,WSW,243,7.0,20.0,22,-99.99,,,-99.99,,2013-02-15 14:41:00,
2013-02-15 06:52:00,54.0,15.0,-100.00,ESE,121,8.0,18.0,21,-99.99,,,-99.99,,2013-02-15 14:52:00,
2013-02-15 07:01:00,54.0,16.0,-100.00,WSW,245,6.0,13.0,22,-99.99,,,-99.99,,2013-02-15 15:01:00,
2013-02-15 07:11:00,54.0,15.0,-100.00,NNW,336,11.0,28.0,21,-99.99,,,-99.99,,2013-02-15 15:11:00,
2013-02-15 07:21:00,54.0,15.0,-100.00,SSW,192,6.0,15.0,21,-99.99,,,-99.99,,2013-02-15 15:21:00,
2013-02-15 07:32:00,54.0,15.0,-100.00,West,272,8.0,18.0,21,-99.99,,,-99.99,,2013-02-15 15:32:00,
2013-02-15 07:41:00,55.0,16.0,-100.00,SSW,208,8.0,17.0,21,-99.99,,,-99.99,,2013-02-15 15:41:00,
2013-02-15 07:51:00,55.0,15.0,-100.00,WNW,289,7.0,15.0,20,-99.99,,,-99.99,,2013-02-15 15:51:00,
2013-02-15 08:01:00,55.0,15.0,-100.00,SSW,208,8.0,35.0,20,-99.99,,,-99.99,,2013-02-15 16:01:00,
2013-02-15 08:11:00,56.0,14.0,-100.00,WSW,244,8.0,19.0,19,-99.99,,,-99.99,,2013-02-15 16:11:00,
2013-02-15 08:22:00,56.0,16.0,-100.00,SW,225,10.0,24.0,20,-99.99,,,-99.99,,2013-02-15 16:22:00,
2013-02-15 08:31:00,56.0,14.0,-100.00,SSW,197,10.0,26.0,19,-99.99,,,-99.99,,2013-02-15 16:31:00,
2013-02-15 08:42:00,56.0,14.0,-100.00,SW,235,8.0,22.0,19,-99.99,,,-99.99,,2013-02-15 16:42:00,
2013-02-15 08:51:00,56.0,14.0,-100.00,SSW,205,8.0,16.0,19,-99.99,,,-99.99,,2013-02-15 16:51:00,
2013-02-15 09:01:00,57.0,15.0,-100.00,SW,234,10.0,19.0,19,-99.99,,,-99.99,,2013-02-15 17:01:00,
2013-02-15 09:11:00,57.0,14.0,-100.00,SSE,164,14.0,31.0,18,-99.99,,,-99.99,,2013-02-15 17:11:00,
2013-02-15 09:21:00,57.0,14.0,-100.00,SE,133,9.0,24.0,18,-99.99,,,-99.99,,2013-02-15 17:21:00,
2013-02-15 09:31:00,58.0,13.0,-100.00,ENE,69,10.0,31.0,17,-99.99,,,-99.99,,2013-02-15 17:31:00,
2013-02-15 09:41:00,58.0,13.0,-100.00,ENE,69,10.0,31.0,17,-99.99,,,-99.99,,2013-02-15 17:41:00,
2013-02-15 09:52:00,58.0,13.0,-100.00,North,356,10.0,31.0,17,-99.99,,,-99.99,,2013-02-15 17:52:00,
2013-02-15 10:01:00,59.0,13.0,-100.00,NNE,25,12.0,32.0,16,-99.99,,,-99.99,,2013-02-15 18:01:00,
2013-02-15 10:11:00,59.0,13.0,-100.00,East,86,10.0,29.0,16,-99.99,,,-99.99,,2013-02-15 18:11:00,
2013-02-15 10:21:00,59.0,13.0,-100.00,NE,52,19.0,39.0,16,-99.99,,,-99.99,,2013-02-15 18:21:00,
2013-02-15 10:31:00,59.0,13.0,-100.00,ENE,68,14.0,37.0,16,-99.99,,,-99.99,,2013-02-15 18:31:00,
2013-02-15 10:41:00,59.0,11.0,-100.00,ENE,60,19.0,38.0,15,-99.99,,,-99.99,,2013-02-15 18:41:00,
2013-02-15 10:52:00,60.0,12.0,-100.00,East,85,13.0,39.0,15,-99.99,,,-99.99,,2013-02-15 18:52:00,
2013-02-15 11:01:00,61.0,11.0,-100.00,ENE,58,9.0,43.0,14,-99.99,,,-99.99,,2013-02-15 19:01:00,
2013-02-15 11:11:00,61.0,10.0,-100.00,ENE,75,13.0,35.0,13,-99.99,,,-99.99,,2013-02-15 19:11:00,
2013-02-15 11:21:00,62.0,11.0,-100.00,NNW,331,13.0,27.0,13,-99.99,,,-99.99,,2013-02-15 19:21:00,
2013-02-15 11:32:00,62.0,9.0,-100.00,NE,53,13.0,41.0,12,-99.99,,,-99.99,,2013-02-15 19:32:00,
2013-02-15 11:41:00,62.0,9.0,-100.00,NE,38,11.0,30.0,12,-99.99,,,-99.99,,2013-02-15 19:41:00,
2013-02-15 11:51:00,63.0,10.0,-100.00,SSW,200,9.0,22.0,12,-99.99,,,-99.99,,2013-02-15 19:51:00,
2013-02-15 12:01:00,63.0,10.0,-100.00,NE,36,13.0,35.0,12,-99.99,,,-99.99,,2013-02-15 20:01:00,
2013-02-15 12:11:00,62.0,9.0,-100.00,NE,51,16.0,39.0,12,-99.99,,,-99.99,,2013-02-15 20:11:00,
2013-02-15 12:21:00,61.0,8.0,-100.00,NE,36,21.0,47.0,12,-99.99,,,-99.99,,2013-02-15 20:21:00,
2013-02-15 12:32:00,61.0,8.0,-100.00,NE,49,20.0,43.0,12,-99.99,,,-99.99,,2013-02-15 20:32:00,
2013-02-15 12:42:00,61.0,10.0,-100.00,NE,42,19.0,48.0,13,-99.99,,,-99.99,,2013-02-15 20:42:00,
2013-02-15 12:52:00,61.0,10.0,-100.00,NE,56,17.0,45.0,13,-99.99,,,-99.99,,2013-02-15 20:52:00,
2013-02-15 13:01:00,62.0,11.0,-100.00,NE,35,18.0,44.0,13,-99.99,,,-99.99,,2013-02-15 21:01:00,
2013-02-15 13:11:00,61.0,8.0,-100.00,NE,41,16.0,50.0,12,-99.99,,,-99.99,,2013-02-15 21:11:00,
2013-02-15 13:21:00,61.0,10.0,-100.00,ENE,61,12.0,40.0,13,-99.99,,,-99.99,,2013-02-15 21:21:00,
2013-02-15 13:31:00,62.0,11.0,-100.00,West,277,10.0,35.0,13,-99.99,,,-99.99,,2013-02-15 21:31:00,
2013-02-15 13:42:00,62.0,9.0,-100.00,SE,127,9.0,32.0,12,-99.99,,,-99.99,,2013-02-15 21:42:00,
2013-02-15 13:51:00,61.0,8.0,-100.00,NNE,13,13.0,37.0,12,-99.99,,,-99.99,,2013-02-15 21:51:00,
2013-02-15 14:01:00,62.0,9.0,-100.00,South,175,7.0,14.0,12,-99.99,,,-99.99,,2013-02-15 22:01:00,
2013-02-15 14:11:00,63.0,10.0,-100.00,NW,319,5.0,13.0,12,-99.99,,,-99.99,,2013-02-15 22:11:00,
2013-02-15 14:21:00,62.0,9.0,-100.00,West,267,7.0,21.0,12,-99.99,,,-99.99,,2013-02-15 22:21:00,
2013-02-15 14:31:00,63.0,10.0,-100.00,ESE,114,5.0,15.0,12,-99.99,,,-99.99,,2013-02-15 22:31:00,
2013-02-15 14:41:00,62.0,9.0,-100.00,SW,218,5.0,12.0,12,-99.99,,,-99.99,,2013-02-15 22:41:00,
2013-02-15 14:51:00,63.0,10.0,-100.00,SSE,150,3.0,8.0,12,-99.99,,,-99.99,,2013-02-15 22:51:00,
2013-02-15 15:02:00,64.0,10.0,-100.00,SSW,202,6.0,16.0,12,-99.99,,,-99.99,,2013-02-15 23:02:00,
2013-02-15 15:11:00,63.0,8.0,-100.00,South,176,6.0,15.0,11,-99.99,,,-99.99,,2013-02-15 23:11:00,
2013-02-15 15:21:00,62.0,7.0,-100.00,ESE,110,7.0,21.0,11,-99.99,,,-99.99,,2013-02-15 23:21:00,
2013-02-15 15:31:00,62.0,7.0,-100.00,East,94,10.0,20.0,11,-99.99,,,-99.99,,2013-02-15 23:31:00,
2013-02-15 15:41:00,62.0,7.0,-100.00,East,94,10.0,20.0,11,-99.99,,,-99.99,,2013-02-15 23:41:00,
2013-02-15 15:52:00,62.0,7.0,-100.00,SSE,163,8.0,15.0,11,-99.99,,,-99.99,,2013-02-15 23:52:00,
2013-02-15 16:01:00,63.0,8.0,-100.00,SW,232,6.0,20.0,11,-99.99,,,-99.99,,2013-02-16 00:01:00,
2013-02-15 16:11:00,63.0,8.0,-100.00,SE,125,5.0,15.0,11,-99.99,,,-99.99,,2013-02-16 00:11:00,
2013-02-15 16:21:00,63.0,6.0,-100.00,SE,132,7.0,15.0,10,-99.99,,,-99.99,,2013-02-16 00:21:00,
2013-02-15 16:31:00,62.0,5.0,-100.00,East,100,7.0,25.0,10,-99.99,,,-99.99,,2013-02-16 00:31:00,
2013-02-15 16:41:00,62.0,7.0,-100.00,SSW,204,5.0,15.0,11,-99.99,,,-99.99,,2013-02-16 00:41:00,
2013-02-15 16:51:00,62.0,7.0,-100.00,SSE,155,4.0,10.0,11,-99.99,,,-99.99,,2013-02-16 00:51:00,
2013-02-15 17:02:00,62.0,5.0,-100.00,East,87,6.0,18.0,10,-99.99,,,-99.99,,2013-02-16 01:02:00,
2013-02-15 17:11:00,62.0,5.0,-100.00,East,101,7.0,17.0,10,-99.99,,,-99.99,,2013-02-16 01:11:00,
2013-02-15 17:21:00,61.0,4.0,-100.00,ENE,76,11.0,23.0,10,-99.99,,,-99.99,,2013-02-16 01:21:00,
2013-02-15 17:31:00,61.0,4.0,-100.00,ENE,75,10.0,17.0,10,-99.99,,,-99.99,,2013-02-16 01:31:00,
2013-02-15 17:41:00,60.0,1.0,-100.00,NE,50,10.0,25.0,9,-99.99,,,-99.99,,2013-02-16 01:41:00,
2013-02-15 17:51:00,61.0,2.0,-100.00,ENE,66,8.0,19.0,9,-99.99,,,-99.99,,2013-02-16 01:51:00,
2013-02-15 18:01:00,60.0,1.0,-100.00,ENE,78,8.0,18.0,9,-99.99,,,-99.99,,2013-02-16 02:01:00,
2013-02-15 18:11:00,60.0,-1.0,-100.00,ENE,76,10.0,25.0,8,-99.99,,,-99.99,,2013-02-16 02:11:00,
2013-02-15 18:21:00,60.0,-1.0,-100.00,ENE,76,7.0,18.0,8,-99.99,,,-99.99,,2013-02-16 02:21:00,
2013-02-15 18:31:00,60.0,-1.0,-100.00,ESE,106,9.0,21.0,8,-99.99,,,-99.99,,2013-02-16 02:31:00,
2013-02-15 18:42:00,61.0,-1.0,-100.00,ESE,109,7.0,24.0,8,-99.99,,,-99.99,,2013-02-16 02:42:00,
2013-02-15 18:52:00,61.0,-1.0,-100.00,NE,54,10.0,24.0,8,-99.99,,,-99.99,,2013-02-16 02:52:00,
2013-02-15 19:01:00,60.0,1.0,-100.00,East,85,9.0,23.0,9,-99.99,,,-99.99,,2013-02-16 03:01:00,
2013-02-15 19:11:00,60.0,1.0,-100.00,NNE,28,11.0,27.0,9,-99.99,,,-99.99,,2013-02-16 03:11:00,
2013-02-15 19:21:00,60.0,1.0,-100.00,NE,34,15.0,39.0,9,-99.99,,,-99.99,,2013-02-16 03:21:00,
2013-02-15 19:31:00,60.0,3.0,-100.00,NE,51,10.0,27.0,10,-99.99,,,-99.99,,2013-02-16 03:31:00,
2013-02-15 19:41:00,59.0,5.0,-100.00,NE,34,7.0,25.0,11,-99.99,,,-99.99,,2013-02-16 03:41:00,
2013-02-15 19:52:00,59.0,5.0,-100.00,NE,35,13.0,36.0,11,-99.99,,,-99.99,,2013-02-16 03:52:00,
2013-02-15 20:01:00,59.0,5.0,-100.00,NE,38,16.0,33.0,11,-99.99,,,-99.99,,2013-02-16 04:01:00,
2013-02-15 20:11:00,59.0,3.0,-100.00,NE,40,12.0,27.0,10,-99.99,,,-99.99,,2013-02-16 04:11:00,
2013-02-15 20:21:00,59.0,3.0,-100.00,NE,39,12.0,33.0,10,-99.99,,,-99.99,,2013-02-16 04:21:00,
2013-02-15 20:31:00,60.0,3.0,-100.00,NE,53,13.0,35.0,10,-99.99,,,-99.99,,2013-02-16 04:31:00,
2013-02-15 20:41:00,60.0,3.0,-100.00,ENE,60,8.0,21.0,10,-99.99,,,-99.99,,2013-02-16 04:41:00,
2013-02-15 20:51:00,60.0,3.0,-100.00,NE,43,13.0,31.0,10,-99.99,,,-99.99,,2013-02-16 04:51:00,
2013-02-15 21:01:00,60.0,3.0,-100.00,NE,48,15.0,37.0,10,-99.99,,,-99.99,,2013-02-16 05:01:00,
2013-02-15 21:11:00,60.0,5.0,-100.00,NE,36,20.0,43.0,11,-99.99,,,-99.99,,2013-02-16 05:11:00,
2013-02-15 21:21:00,60.0,5.0,-100.00,NE,34,22.0,41.0,11,-99.99,,,-99.99,,2013-02-16 05:21:00,
2013-02-15 21:31:00,60.0,3.0,-100.00,NE,50,18.0,42.0,10,-99.99,,,-99.99,,2013-02-16 05:31:00,
2013-02-15 21:42:00,60.0,3.0,-100.00,NE,38,21.0,39.0,10,-99.99,,,-99.99,,2013-02-16 05:42:00,
2013-02-15 21:52:00,61.0,4.0,-100.00,NE,38,22.0,41.0,10,-99.99,,,-99.99,,2013-02-16 05:52:00,
2013-02-15 22:01:00,61.0,4.0,-100.00,NE,50,22.0,43.0,10,-99.99,,,-99.99,,2013-02-16 06:01:00,
2013-02-15 22:11:00,61.0,2.0,-100.00,NE,45,23.0,40.0,9,-99.99,,,-99.99,,2013-02-16 06:11:00,
2013-02-15 22:21:00,61.0,-1.0,-100.00,NE,42,26.0,42.0,8,-99.99,,,-99.99,,2013-02-16 06:21:00,
2013-02-15 22:32:00,62.0,0.0,-100.00,NE,41,27.0,54.0,8,-99.99,,,-99.99,,2013-02-16 06:32:00,
2013-02-15 22:41:00,61.0,-1.0,-100.00,NE,43,29.0,56.0,8,-99.99,,,-99.99,,2013-02-16 06:41:00,
2013-02-15 22:51:00,62.0,0.0,-100.00,NE,53,28.0,45.0,8,-99.99,,,-99.99,,2013-02-16 06:51:00,
2013-02-15 23:02:00,62.0,0.0,-100.00,NE,54,26.0,48.0,8,-99.99,,,-99.99,,2013-02-16 07:02:00,
2013-02-15 23:11:00,63.0,-2.0,-100.00,NE,54,29.0,51.0,7,-99.99,,,-99.99,,2013-02-16 07:11:00,
2013-02-15 23:21:00,62.0,0.0,-100.00,ENE,58,26.0,50.0,8,-99.99,,,-99.99,,2013-02-16 07:21:00,
2013-02-15 23:31:00,62.0,0.0,-100.00,ENE,70,25.0,46.0,8,-99.99,,,-99.99,,2013-02-16 07:31:00,
2013-02-15 23:42:00,62.0,0.0,-100.00,ENE,69,23.0,46.0,8,-99.99,,,-99.99,,2013-02-16 07:42:00,
2013-02-15 23:52:00,62.0,0.0,-100.00,ENE,58,23.0,48.0,8,-99.99,,,-99.99,,2013-02-16 07:52:00,